[[{"header":{"parameterUnit":"m.s-1","parameterCategory":1,"la1":30.2991,"la2":30.254,"lo1":-89.0895,"lo2":-89.0444,"dx":0.0017,"dy":0.0017,"nx":28,"ny":28,"refTime":"2023-01-27T09:00:00:Z","depth":0,"parameterNumber":2,"parameterNumberName":"U-component_of_WINDS"},"data":[0,0,0,0,0,0,0,0,0,0,0,0,0,0,0,0,0,0,0,0,0,0,0,0,0,0,0,0,0,0,0,0,0,0,0,0,0,0,0,0,0,0,0,0,0,0,0,0,0,0,0,0,0,0,0,0,0,0,-4.3089,-4.309,0,-4.3217,-4.3218,-4.322,-4.3237,-4.3236,-4.3235,-4.3234,-4.3362,-4.3366,-4.3371,0,0,0,0,0,0,0,0,0,0,0,0,0,-4.2858,-4.2862,-4.3089,-4.309,-4.3092,-4.3216,-4.3218,-4.322,-4.3238,-4.3236,-4.3235,-4.3233,-4.336,-4.3366,-4.3371,0,0,0,0,0,0,0,0,0,0,0,0,0,-4.2969,-4.2863,-4.3088,-4.3116,-4.312,-4.3216,-4.3218,-4.322,-4.3238,-4.3236,-4.3234,-4.3233,-4.3359,-4.3365,-4.3372,-4.3449,0,0,-4.3392,-4.3395,0,0,0,0,0,0,0,0,-4.2962,-4.2977,-4.311,-4.3114,-4.3118,-4.3209,-4.3184,-4.3297,-4.3238,-4.3193,-4.3234,-4.3232,-4.3312,-4.3323,-4.3351,-4.3455,-4.346,-4.3393,-4.3397,-4.34,-4.3402,0,0,0,0,0,0,0,-4.2955,-4.2972,-4.3139,-4.3112,-4.3117,-4.3121,-4.3135,-4.3205,-4.3261,-4.3197,-4.3198,-4.3213,-4.3314,-4.3344,-4.3354,-4.3462,-4.3393,-4.3399,-4.3403,-4.3406,-4.3636,-4.3638,0,0,0,0,0,0,-4.2942,-4.2965,-4.3135,-4.3143,-4.3035,-4.3127,-4.3142,-4.3182,-4.326,-4.327,-4.3215,-4.3214,-4.3333,-4.3346,-4.3358,-4.3453,-4.34,-4.3406,-4.341,-4.3634,-4.3637,-4.3639,0,0,0,0,0,0,-4.2937,-4.2957,-4.313,-4.3055,-4.3077,-4.3133,-4.3177,-4.3185,-4.3215,-4.3274,-4.3284,-4.3235,-4.3332,-4.3349,-4.3426,-4.3458,-4.3409,-4.3416,-4.3632,-4.3635,-4.3638,-4.3643,0,0,0,0,0,0,-4.2931,-4.2955,-4.2986,-4.3055,-4.3081,-4.3197,-4.3179,-4.3189,-4.3227,-4.3227,-4.3296,-4.3305,-4.3332,-4.3416,-4.3433,-4.3466,-4.3421,-4.3629,-4.3633,-4.3637,-4.3641,-4.3646,-4.3651,0,0,0,0,0,-4.2922,-4.2982,-4.2987,-4.3008,-4.312,-4.3198,-4.3213,-4.3244,-4.323,-4.326,-4.3298,-4.3303,-4.3452,-4.3424,-4.3443,-4.3479,-4.3627,-4.3632,-4.3637,-4.3638,-4.3645,-4.3651,0,0,0,0,0,0,-4.2913,-4.2991,-4.2998,-4.3082,-4.3134,-4.3201,-4.324,-4.325,-4.3306,-4.3304,-4.3339,-4.3354,-4.343,-4.3463,-4.343,-4.3558,-4.3538,-4.3547,-4.3533,-4.354,-4.3545,-4.3535,-4.3426,0,0,0,0,0,-4.2921,-4.2979,-4.3044,-4.3111,-4.3137,-4.3184,-4.322,-4.3239,-4.3294,-4.3315,-4.3359,-4.3411,-4.3469,-4.3507,-4.3564,-4.3646,-4.3661,-4.368,-4.3686,-4.369,-4.3696,-4.3741,-4.375,-4.3654,-4.3654,-4.3654,0,0,-4.2937,-4.2987,-4.3021,-4.311,-4.3153,-4.3211,-4.3202,-4.3264,-4.3308,-4.3324,-4.34,-4.3434,-4.3495,-4.3575,-4.3612,-4.3604,-4.3726,-4.3696,-4.3698,-4.3703,-4.3747,-4.3756,-4.3764,-4.3658,-4.3657,-4.3656,0,0,-4.2996,-4.304,-4.3101,-4.3144,-4.3209,-4.324,-4.3255,-4.3322,-4.3345,-4.3423,-4.3436,-4.3488,-4.3589,-4.3631,-4.3666,-4.3742,-4.3749,-4.376,-4.3787,-4.383,-4.3838,-4.3845,-4.3871,-4.388,-4.3767,-4.3767,-4.3767,0,-4.3007,-4.3096,-4.3131,-4.3192,-4.3231,-4.3251,-4.3312,-4.3352,-4.3432,-4.3457,-4.3448,-4.3575,-4.3617,-4.3707,-4.3725,-4.3754,-4.377,-4.3751,-4.3834,-4.3842,-4.3848,-4.3873,-4.3883,-4.3768,-4.3768,-4.3768,-4.3768,0,-4.3106,-4.3168,-4.321,-4.3287,-4.3331,-4.3392,-4.3435,-4.3475,-4.3491,-4.3524,-4.3602,-4.3654,-4.3721,-4.3745,-4.3761,-4.3837,-4.383,-4.3827,-4.3808,-4.3858,-4.3882,-4.3892,-4.3769,-4.3769,-4.3768,-4.3768,0,0,-4.316,-4.3258,-4.3272,-4.3307,-4.3381,-4.3429,-4.3491,-4.3559,-4.3592,-4.3647,-4.3699,-4.3785,-4.3783,-4.3822,-4.3843,-4.3882,-4.3938,-4.3874,-4.3876,-4.3883,-4.4024,-4.4024,-4.4035,-4.3944,-4.3946,-4.3948,-4.4018,0,-4.3226,-4.3338,-4.3372,-4.3465,-4.3522,-4.3543,-4.3597,-4.3648,-4.368,-4.3733,-4.3768,-4.3828,-4.3821,-4.3845,-4.3885,-4.3923,-4.3967,-4.3919,-4.3991,-4.3993,-4.3973,-4.4048,-4.4048,-4.4112,-4.4028,-4.403,-4.4031,0,-4.3318,-4.3375,-4.3475,-4.3542,-4.3567,-4.3615,-4.3679,-4.373,-4.3788,-4.3809,-4.3854,-4.3872,-4.3937,-4.3917,-4.4007,-4.3973,-4.4005,-4.4029,-4.4032,-4.4038,-4.4013,-4.4054,-4.4134,-4.4142,-4.4047,-4.4045,-4.4044,0,-4.3345,-4.3447,-4.352,-4.355,-4.363,-4.3663,-4.3698,-4.3755,-4.3793,-4.385,-4.3875,-4.3939,-4.3973,-4.4021,-4.4056,-4.4038,-4.4142,-4.4125,-4.416,-4.4159,-4.4179,-4.4177,-4.4263,-4.4203,-4.4203,-4.4203,-4.4203,0,-4.3413,-4.3473,-4.3533,-4.3578,-4.3645,-4.3683,-4.3749,-4.3785,-4.3835,-4.3886,-4.3909,-4.3956,-4.4001,-4.4054,-4.4082,-4.4151,-4.4167,-4.4184,-4.4191,-4.4181,-4.4179,-4.4201,-4.4196,-4.4206,-4.4205,-4.4205,-4.4204,0,-4.3454,-4.3497,-4.3577,-4.3647,-4.3666,-4.3713,-4.3772,-4.3816,-4.385,-4.3915,-4.3932,-4.3986,-4.405,-4.409,-4.4171,-4.419,-4.4266,-4.4271,-4.4246,-4.4248,-4.4281,-4.4276,-4.4382,-4.4397,-4.4329,-4.433,-4.4331,0,-4.3494,-4.354,-4.3616,-4.3652,-4.3688,-4.3746,-4.3786,-4.3826,-4.3866,-4.3937,-4.3972,-4.4038,-4.4092,-4.4193,-4.4239,-4.4301,-4.4307,-4.434,-4.4316,-4.4305,-4.4305,-4.4301,-4.4306,-4.4343,-4.4344,-4.4344,-4.4344,0,-4.3559,-4.3579,-4.3636,-4.3701,-4.3748,-4.3801,-4.3854,-4.3882,-4.3931,-4.3975,-4.4042,-4.4084,-4.4168,-4.4232,-4.4299,-4.4334,-4.4347,-4.4352,-4.4363,-4.4353,-4.4335,-4.4343,-4.4254,-4.4349,-4.4348,-4.4348,-4.4348,-4.4347,-4.36,-4.3642,-4.3702,-4.3765,-4.3809,-4.3858,-4.3902,-4.3943,-4.3999,-4.4071,-4.4091,-4.416,-4.4218,-4.4309,-4.4345,-4.4399,-4.4395,-4.4411,-4.4415,-4.4418,-4.4418,-4.4329,-4.4412,-4.4412,-4.4412,-4.4412,-4.4412,0,-4.3665,-4.3705,-4.3763,-4.3836,-4.3886,-4.3896,-4.3955,-4.3995,-4.4056,-4.4109,-4.4163,-4.4239,-4.4302,-4.4353,-4.4418,-4.4452,-4.4459,-4.4467,-4.4464,-4.4471,-4.4419,-4.4402,-4.446,-4.446,-4.446,-4.446,-4.446,-4.446,-4.3704,-4.3776,-4.3803,-4.3896,-4.3936,-4.4004,-4.4037,-4.4082,-4.4125,-4.4209,-4.4262,-4.4296,-4.4348,-4.4417,-4.4476,-4.4489,-4.4511,-4.4517,-4.4532,-4.4481,-4.4475,-4.447,-4.4454,-4.4522,-4.4522,-4.458,-4.458,-4.4581]},{"header":{"parameterUnit":"m.s-1","parameterCategory":1,"la1":30.2991,"la2":30.254,"lo1":-89.0895,"lo2":-89.0444,"dx":0.0017,"dy":0.0017,"nx":28,"ny":28,"refTime":"2023-01-27T09:00:00:Z","depth":0,"parameterNumber":3,"parameterNumberName":"V-component_of_WINDS"},"data":[0,0,0,0,0,0,0,0,0,0,0,0,0,0,0,0,0,0,0,0,0,0,0,0,0,0,0,0,0,0,0,0,0,0,0,0,0,0,0,0,0,0,0,0,0,0,0,0,0,0,0,0,0,0,0,0,0,0,3.2496,3.2497,0,3.2572,3.2573,3.2573,3.2589,3.2588,3.2588,3.2587,3.2663,3.2665,3.2668,0,0,0,0,0,0,0,0,0,0,0,0,0,3.2365,3.2367,3.2496,3.2497,3.2498,3.2572,3.2573,3.2574,3.2589,3.2588,3.2587,3.2587,3.2662,3.2665,3.2668,0,0,0,0,0,0,0,0,0,0,0,0,0,3.2429,3.2368,3.2496,3.2514,3.2517,3.2571,3.2573,3.2574,3.2589,3.2588,3.2587,3.2586,3.2661,3.2665,3.2669,3.271,0,0,3.268,3.2682,0,0,0,0,0,0,0,0,3.2426,3.2434,3.2511,3.2513,3.2516,3.257,3.2554,3.2619,3.2589,3.2561,3.2587,3.2586,3.2633,3.2639,3.2655,3.2713,3.2717,3.2681,3.2683,3.2685,3.2686,0,0,0,0,0,0,0,3.2421,3.2431,3.2526,3.2512,3.2515,3.2519,3.2527,3.2567,3.2601,3.2564,3.2565,3.2574,3.2634,3.2651,3.2657,3.2718,3.2681,3.2684,3.2686,3.2688,3.2817,3.2819,0,0,0,0,0,0,3.2414,3.2427,3.2523,3.2528,3.2468,3.2522,3.2531,3.2553,3.2601,3.2607,3.2575,3.2574,3.2645,3.2652,3.2659,3.2713,3.2685,3.2688,3.269,3.2816,3.2818,3.2819,0,0,0,0,0,0,3.2411,3.2422,3.252,3.2478,3.2491,3.2525,3.255,3.2555,3.2573,3.2609,3.2615,3.2586,3.2645,3.2654,3.2698,3.2716,3.269,3.2693,3.2815,3.2817,3.2818,3.2819,0,0,0,0,0,0,3.2407,3.2421,3.2436,3.2478,3.2493,3.2557,3.2551,3.2557,3.2579,3.258,3.2621,3.2627,3.2645,3.2692,3.2702,3.2721,3.2696,3.2814,3.2816,3.2818,3.2818,3.2821,3.2823,0,0,0,0,0,3.2402,3.2432,3.2437,3.2449,3.2513,3.2558,3.2567,3.2587,3.2581,3.2597,3.2621,3.2626,3.2712,3.2697,3.2708,3.2728,3.2813,3.2815,3.2818,3.2817,3.282,3.2823,0,0,0,0,0,0,3.239,3.2438,3.2444,3.2488,3.252,3.2561,3.2582,3.259,3.2623,3.2621,3.2645,3.2654,3.2697,3.2717,3.2698,3.2772,3.2762,3.2767,3.2758,3.2761,3.2764,3.2759,3.27,0,0,0,0,0,3.2393,3.2426,3.2466,3.2501,3.2517,3.2547,3.2567,3.258,3.2613,3.2626,3.2653,3.2684,3.2719,3.2741,3.2775,3.2821,3.2831,3.284,3.2843,3.2845,3.2849,3.2878,3.2884,3.2827,3.2827,3.2827,0,0,3.2399,3.2429,3.2448,3.25,3.2525,3.256,3.2558,3.2593,3.2619,3.2631,3.2675,3.2696,3.2733,3.2779,3.2801,3.2797,3.2868,3.2849,3.285,3.2853,3.2882,3.2887,3.2892,3.2829,3.2829,3.2829,0,0,3.2427,3.2452,3.2486,3.2513,3.2552,3.2572,3.2581,3.2622,3.2637,3.2682,3.2693,3.2724,3.2782,3.2809,3.283,3.2872,3.2879,3.2883,3.2897,3.2925,3.293,3.2934,3.2951,3.2957,3.2886,3.2886,3.2886,0,3.2429,3.2481,3.2503,3.2539,3.2562,3.2577,3.2612,3.2637,3.2685,3.2701,3.2696,3.2772,3.2798,3.2852,3.2863,3.2878,3.289,3.2878,3.2927,3.2932,3.2936,3.2952,3.2959,3.2887,3.2887,3.2887,3.2887,0,3.2482,3.2518,3.2541,3.2589,3.2615,3.2651,3.2679,3.2703,3.2715,3.2736,3.2783,3.2815,3.2856,3.287,3.2881,3.2927,3.2923,3.2922,3.2913,3.2941,3.2957,3.2964,3.2887,3.2887,3.2887,3.2887,0,0,3.2504,3.2566,3.2574,3.2597,3.2643,3.2672,3.2709,3.2751,3.2772,3.2805,3.2838,3.2889,3.289,3.2914,3.2928,3.2953,3.2987,3.2949,3.2951,3.2957,3.3043,3.3044,3.3051,3.2992,3.2993,3.2994,3.3041,0,3.2539,3.2606,3.2628,3.2685,3.272,3.2735,3.2768,3.28,3.2822,3.2855,3.2878,3.2915,3.2912,3.2927,3.2952,3.2978,3.3005,3.2975,3.3024,3.3025,3.3015,3.3059,3.306,3.3102,3.3047,3.3048,3.3049,0,3.2588,3.2625,3.2685,3.2729,3.2745,3.2774,3.2816,3.2847,3.2885,3.2899,3.2928,3.2941,3.2982,3.2971,3.3028,3.3007,3.3029,3.3045,3.3047,3.3053,3.3039,3.3068,3.3116,3.3123,3.3058,3.3058,3.3057,0,3.2601,3.2664,3.2709,3.2728,3.2781,3.2802,3.2824,3.2862,3.2887,3.2923,3.294,3.2981,3.3003,3.3035,3.306,3.3048,3.3116,3.3106,3.313,3.313,3.3144,3.3143,3.3197,3.3155,3.3155,3.3155,3.3155,0,3.2638,3.2675,3.2716,3.2744,3.2786,3.2812,3.2853,3.2877,3.2911,3.2944,3.296,3.2991,3.3021,3.3056,3.3076,3.3122,3.3131,3.3145,3.315,3.3144,3.3143,3.3159,3.3158,3.3157,3.3156,3.3156,3.3156,0,3.2659,3.2687,3.2738,3.2785,3.2798,3.2827,3.2868,3.2896,3.2919,3.2961,3.2973,3.3009,3.3052,3.308,3.3133,3.3147,3.3198,3.3201,3.3186,3.3189,3.3212,3.321,3.328,3.3292,3.3241,3.3241,3.3241,0,3.2681,3.271,3.2761,3.2785,3.2809,3.2847,3.2874,3.2901,3.2928,3.2975,3.2998,3.3043,3.308,3.3148,3.3179,3.3221,3.3227,3.3249,3.3233,3.3228,3.323,3.3228,3.3233,3.3251,3.3252,3.3252,3.3252,0,3.2719,3.2733,3.2771,3.2815,3.2846,3.2882,3.2917,3.2936,3.297,3.2999,3.3045,3.3073,3.313,3.3175,3.3221,3.3245,3.3255,3.3257,3.3265,3.3261,3.3251,3.3259,3.3195,3.3255,3.3255,3.3255,3.3255,3.3254,3.2743,3.2771,3.2812,3.2854,3.2885,3.2918,3.2948,3.2976,3.3014,3.3064,3.3077,3.3125,3.3165,3.3228,3.3253,3.3291,3.3289,3.33,3.3303,3.3306,3.3308,3.3244,3.3299,3.3299,3.3299,3.3299,3.3299,0,3.2784,3.2812,3.285,3.2901,3.2935,3.2943,3.2983,3.3011,3.3053,3.309,3.3127,3.318,3.3224,3.326,3.3306,3.333,3.3336,3.3341,3.334,3.3346,3.3306,3.3295,3.3336,3.3336,3.3336,3.3336,3.3336,3.3336,3.2809,3.2857,3.2876,3.2941,3.2969,3.3016,3.3039,3.3071,3.3101,3.316,3.3197,3.3221,3.3258,3.3307,3.3349,3.3358,3.3375,3.338,3.3391,3.3353,3.3349,3.3345,3.3335,3.3383,3.3383,3.3428,3.3428,3.3429]}]]